Lapse_Rate
4.6 4.6 4.6 4.2 4.8 5.8 7.0 7.6 7.6 7.7 7.7 7.1 6.8 6.5 6.4 6.3 6.2 6.1 6.0 6.1 6.1 6.4 6.6 6.4 6.2 6.3 6.3 6.0 5.6 5.4 5.5 5.5
4.7 4.3 4.4 4.8 5.8 6.7 7.5 7.7 7.9 7.7 7.3 7.1 6.9 6.6 6.4 6.4 6.2 6.2 6.2 6.3 6.3 6.4 6.3 6.2 6.3 6.2 6.1 6.0 5.7 5.4 5.5 5.6
4.9 4.7 4.8 5.4 6.2 6.7 7.5 8.1 7.9 7.4 7.3 7.1 6.9 6.9 6.6 6.4 6.5 6.6 6.8 6.5 6.3 6.4 6.3 6.1 5.9 5.9 5.9 6.1 6.0 5.9 5.6 5.7
4.5 4.9 5.2 5.7 6.7 7.1 7.4 7.9 7.9 7.8 7.5 7.2 6.8 6.5 6.5 6.5 6.6 6.7 6.6 6.4 5.7 5.9 5.8 5.9 5.8 5.7 5.9 6.1 6.1 6.0 5.9 5.9
4.9 5.1 6.1 7.0 7.3 7.7 7.8 7.7 7.5 7.4 7.0 6.8 6.6 6.6 6.5 6.6 6.5 6.7 6.2 6.1 6.1 6.3 6.0 5.8 6.1 6.3 6.1 6.1 6.5 6.7 6.7 6.4
5.6 6.8 6.9 6.9 7.0 7.2 7.2 7.3 7.3 7.1 6.8 6.6 6.7 6.5 6.7 6.6 6.6 6.6 6.2 6.4 6.6 6.4 6.2 6.2 6.1 6.0 5.9 5.8 6.2 6.4 6.4 6.3
7.0 6.6 6.7 7.0 7.3 7.2 7.1 7.2 7.3 6.8 6.8 6.7 6.5 6.9 6.8 6.6 6.6 6.3 6.3 6.3 6.4 6.3 6.0 6.1 6.1 6.0 5.8 5.8 5.9 6.1 6.1 6.1
6.5 6.5 6.5 6.7 6.9 7.0 6.9 6.8 6.7 6.7 6.6 6.6 6.5 6.4 6.3 6.5 6.4 6.2 6.3 6.1 6.1 5.8 5.9 6.0 6.0 6.0 6.0 6.2 6.2 6.3 6.4 6.4
6.6 6.8 6.9 6.8 6.8 7.0 7.0 7.0 7.0 6.9 6.8 6.7 6.6 6.2 6.2 6.1 6.1 5.9 5.9 5.8 5.7 5.9 6.0 6.1 6.1 6.2 6.2 6.2 6.3 6.5 6.5 6.7
7.1 7.1 7.1 7.2 7.2 7.2 7.3 7.1 6.9 6.7 6.8 6.6 6.5 6.0 5.8 5.9 6.0 5.9 5.9 5.8 6.0 6.1 6.1 6.1 6.3 6.4 6.5 6.4 6.4 6.4 6.5 6.6
7.1 7.1 7.0 6.9 6.8 6.9 6.8 6.8 6.7 6.9 6.7 6.5 6.2 6.0 5.8 5.8 6.1 6.2 5.7 5.9 6.2 6.2 6.3 6.4 6.5 6.7 6.9 6.9 6.9 7.0 7.0 6.9
7.1 7.0 7.0 7.1 7.2 7.1 7.1 7.1 7.1 6.9 6.7 6.6 6.6 6.4 6.2 6.2 6.2 6.0 6.0 6.1 6.2 6.3 6.4 6.6 6.8 6.7 6.6 6.7 6.8 6.9 6.8 6.9
7.6 7.5 7.4 7.3 7.3 7.1 7.0 7.0 6.8 6.7 6.7 6.7 6.4 6.3 6.3 6.2 6.0 5.9 6.1 6.2 6.3 6.5 6.4 6.4 6.4 6.4 6.5 6.6 6.6 6.8 6.8 6.9
7.4 7.3 7.2 7.2 7.1 6.8 6.6 6.5 6.6 6.5 6.5 6.3 6.1 6.0 6.1 6.0 6.0 6.1 6.3 6.2 6.1 6.1 6.2 6.2 6.3 6.4 6.4 6.4 6.6 7.0 7.0 7.0
7.7 7.5 7.0 7.0 6.7 6.5 6.4 6.4 6.4 6.3 6.2 6.1 6.0 5.9 5.8 5.8 5.9 6.0 5.9 6.0 5.9 6.1 6.2 6.2 6.2 6.3 6.3 6.2 6.3 6.4 6.5 6.8
7.4 7.4 7.0 6.9 6.6 6.3 6.3 6.3 6.2 6.1 6.2 6.1 5.9 5.8 5.8 5.9 5.9 5.9 6.1 6.2 6.2 6.1 6.2 6.4 6.4 6.4 6.5 6.3 6.1 6.0 5.8 6.0
6.7 6.7 6.7 6.6 6.4 6.4 6.4 6.4 6.5 6.3 6.1 6.0 5.8 5.9 6.1 6.2 6.2 5.9 5.8 5.7 5.9 6.2 6.4 6.4 6.1 5.9 5.9 5.9 5.9 5.9 5.8 5.7
6.7 6.4 6.6 6.8 6.6 6.6 6.5 6.5 6.5 6.1 6.0 6.0 6.0 6.0 5.8 5.8 5.7 5.5 5.5 5.6 6.1 6.1 6.0 5.9 5.5 5.2 5.1 5.3 5.4 5.4 5.3 5.3
6.9 6.7 6.8 6.9 6.6 6.6 6.6 6.5 6.2 6.1 6.0 5.9 5.9 5.8 5.5 5.5 5.6 5.5 5.9 5.5 5.6 5.3 5.2 5.1 4.9 5.0 5.1 5.2 5.1 5.1 4.9 4.8
6.8 6.8 6.9 6.7 6.6 6.5 6.4 6.0 5.7 5.6 5.6 5.4 5.4 5.7 5.8 6.0 5.9 5.9 5.8 5.9 5.5 5.1 5.2 5.2 5.1 5.0 5.0 5.1 5.0 4.7 4.5 4.5
Wind_Speed
14 17 21 23 21 22 23 21 21 21 22 22 22 21 20 18 17 16 14 11 10 13 13 13 13 15 19 23 21 19 13 13
14 10 12 14 16 22 24 23 23 22 22 23 23 22 20 17 16 14 11 9 7 12 12 12 12 12 13 16 19 18 12 11
14 14 16 12 15 18 21 23 22 22 20 21 20 17 16 14 12 10 9 6 8 11 10 11 14 15 14 14 14 13 10 7
9 14 12 12 12 13 14 16 14 15 17 17 14 14 11 8 8 7 6 7 9 10 11 16 17 18 16 17 15 12 10 5
10 8 14 11 9 11 10 14 14 15 16 14 10 8 7 7 7 5 6 8 14 18 17 17 17 18 19 19 19 17 16 17
9 11 10 11 11 8 10 9 8 8 7 8 7 7 8 4 6 11 14 16 17 16 16 16 18 18 18 16 16 16 15 15
10 10 7 8 7 7 7 7 11 13 13 13 17 12 8 12 15 15 15 16 16 14 15 14 16 17 18 17 13 16 16 17
10 10 8 11 7 9 9 12 13 13 12 14 16 16 14 13 12 11 13 16 17 17 14 12 11 14 13 16 14 17 16 19
11 9 12 10 9 10 10 10 13 13 13 15 17 18 18 16 11 9 12 17 17 16 14 14 12 11 8 11 14 15 15 18
8 11 10 7 7 9 10 13 13 13 14 15 18 19 19 15 10 9 14 14 13 11 6 4 3 3 2 4 9 13 13 13
11 11 10 8 9 11 11 13 11 13 14 15 18 17 18 17 13 12 13 11 9 7 4 2 1 3 2 3 6 6 9 11
13 9 10 9 8 8 7 7 7 11 12 14 15 15 15 15 14 13 13 9 5 4 2 2 2 1 2 3 4 4 7 7
15 13 10 9 5 4 3 3 2 2 7 12 13 13 14 14 12 12 11 4 4 3 2 2 3 3 2 3 3 2 4 1
13 12 11 8 6 3 3 4 1 2 7 10 14 16 18 15 13 9 10 4 4 3 3 1 1 3 1 1 3 4 3 5
14 13 12 9 6 4 3 4 4 2 2 3 9 17 16 17 14 12 9 6 3 2 3 3 1 1 1 2 3 2 2 1
13 11 10 6 7 7 7 6 7 4 4 4 8 16 15 16 16 11 8 6 4 3 3 2 2 2 2 2 3 3 2 4
12 11 10 8 9 8 9 5 4 3 3 7 5 8 12 8 10 10 9 8 6 4 3 3 1 2 2 2 1 1 2 3
12 13 11 8 10 9 11 10 7 5 5 5 4 3 5 12 14 12 10 6 4 3 2 1 1 1 1 2 3 3 3 3
12 12 9 8 9 10 9 8 8 9 8 5 5 4 4 5 10 8 7 5 3 2 1 2 3 2 3 2 2 3 2 2
12 11 7 7 8 7 6 7 4 4 4 4 5 5 5 9 9 9 8 3 2 1 2 2 2 2 3 2 2 3 2 3
Wind_Direction
129 126 126 132 125 128 128 131 134 140 133 131 129 129 128 128 122 118 116 107 97 83 71 60 41 38 43 44 68 62 83 75
110 141 130 124 129 136 139 142 145 141 141 137 134 136 134 131 126 126 119 101 85 69 61 55 48 54 49 45 41 60 83 76
136 189 161 136 141 145 147 147 148 145 138 140 140 141 138 134 138 129 112 110 71 66 58 61 59 55 53 40 38 33 66 91
167 182 139 147 157 150 157 150 152 145 144 144 144 133 134 135 129 119 104 65 57 59 54 71 63 54 47 33 24 18 29 49
205 155 159 154 164 169 160 149 156 148 143 150 133 141 150 141 103 97 93 75 84 87 69 58 55 54 47 39 33 40 39 30
172 165 171 172 171 172 161 150 136 115 149 167 181 141 152 125 103 78 103 95 82 78 71 60 55 48 44 41 39 33 26 25
162 174 184 164 150 154 142 130 128 128 113 118 127 118 113 107 97 102 100 98 91 82 70 57 43 37 35 34 36 23 18 22
168 176 141 143 129 132 135 132 126 117 112 117 119 119 117 105 107 108 99 91 85 79 73 63 50 40 31 30 25 16 11 13
147 126 139 138 136 124 112 118 113 102 112 116 121 125 122 120 114 97 98 96 86 75 62 55 43 29 29 26 24 11 15 18
136 143 146 127 119 113 111 112 115 121 122 123 125 127 125 117 105 92 104 102 96 82 66 57 58 46 17 19 8 355 16 37
140 146 140 121 112 112 112 118 122 120 122 125 132 130 126 116 104 106 109 96 75 83 65 107 67 19 349 26 345 333 30 56
147 145 131 127 117 108 94 96 97 130 141 140 137 132 126 116 109 113 113 93 78 88 108 40 97 68 15 339 294 40 83 68
158 149 150 139 135 122 115 139 143 136 145 150 141 137 142 126 121 118 109 101 127 147 138 79 32 11 49 323 324 169 92 94
158 162 160 163 158 142 140 136 167 142 173 172 158 145 140 135 136 131 130 129 138 102 92 86 7 32 83 119 334 330 329 340
172 170 171 168 152 124 80 86 76 105 182 182 177 160 158 150 149 151 152 134 131 112 117 112 144 293 96 135 342 262 308 282
173 169 172 180 161 160 163 170 169 196 178 167 177 164 162 165 166 154 128 106 98 100 107 117 127 353 334 209 225 178 222 315
170 176 182 186 179 172 172 176 185 148 148 168 173 173 169 148 132 126 115 115 116 110 84 73 121 181 189 249 266 243 193 205
174 183 191 191 181 177 180 182 173 156 167 178 179 122 107 110 116 117 110 97 86 86 94 66 8 275 245 231 202 206 225 227
178 180 184 180 179 181 183 178 169 176 169 166 136 125 119 120 113 91 73 66 69 69 46 343 328 304 277 247 203 228 226 238
185 177 159 163 162 146 138 139 131 123 115 99 81 73 55 62 96 113 106 124 88 40 24 13 42 54 14 312 285 268 233 212